Location: Prague
(50.0830°N, 14.4670°E)
Time: 12:09:11
(UTC+01:00)

AO-7 - Pass Details

Date: 11 December 2021
Orbit: 1440 x 1459 km, 101.9° (Epoch: 29 January)

Event Time Altitude Azimuth Distance (km) Brightness Sun altitude
Rises 16:19:09 0° 193° (SSW) 4,520 ? -3.4°
Reaches altitude 10° 16:22:18 10° 203° (SSW) 3,546 ? -3.8°
Maximum altitude 16:29:33 33° 265° (W) 2,227 ? -4.8°
Drops below altitude 10° 16:36:53 10° 327° (NNW) 3,565 ? -5.8°
Sets 16:40:05 0° 337° (NNW) 4,549 ? -6.3°
